[TLELIST] Archives

 

[TLELIST] Current TLEs

February 17th 2024 PDT

HST 1 20580U 90037B 24047.46404033 .00008594 00000-0 42603-3 0 9999 2 20580 28.4695 79.5234 0003010 147.2751 212.8028 15.15968121658531 ISS (ZARYA) 1 25544U 98067A 24048.28174975 .00021751 00000-0 38766-3 0 9990 2 25544 51.6403 194.5308 0001917 282.3859 152.0269 15.50027599439808 CXO 1 25867U 99040B 24048.87165384 .00000696 00000-0 00000-0 0 9991 2 25867 38.8200 166.0665 8986503 287.3514 0.4282 0.37807568 14117 ...Continue Reading

[TLELIST] Current TLEs

February 17th 2024 PDT

HST 1 20580U 90037B 24047.46404033 .00008594 00000-0 42603-3 0 9999 2 20580 28.4695 79.5234 0003010 147.2751 212.8028 15.15968121658531 ISS (ZARYA) 1 25544U 98067A 24048.28174975 .00021751 00000-0 38766-3 0 9990 2 25544 51.6403 194.5308 0001917 282.3859 152.0269 15.50027599439808 CXO 1 25867U 99040B 24048.87165384 .00000696 00000-0 00000-0 0 9991 2 25867 38.8200 166.0665 8986503 287.3514 0.4282 0.37807568 14117 ...Continue Reading

[TLELIST] Current TLEs

February 17th 2024 PDT

HST 1 20580U 90037B 24047.46404033 .00008594 00000-0 42603-3 0 9999 2 20580 28.4695 79.5234 0003010 147.2751 212.8028 15.15968121658531 ISS (ZARYA) 1 25544U 98067A 24048.28174975 .00021751 00000-0 38766-3 0 9990 2 25544 51.6403 194.5308 0001917 282.3859 152.0269 15.50027599439808 CXO 1 25867U 99040B 24048.87165384 .00000696 00000-0 00000-0 0 9991 2 25867 38.8200 166.0665 8986503 287.3514 0.4282 0.37807568 14117 ...Continue Reading

[TLELIST] Current TLEs

February 17th 2024 PDT

HST 1 20580U 90037B 24047.46404033 .00008594 00000-0 42603-3 0 9999 2 20580 28.4695 79.5234 0003010 147.2751 212.8028 15.15968121658531 ISS (ZARYA) 1 25544U 98067A 24048.28174975 .00021751 00000-0 38766-3 0 9990 2 25544 51.6403 194.5308 0001917 282.3859 152.0269 15.50027599439808 CXO 1 25867U 99040B 24048.87165384 .00000696 00000-0 00000-0 0 9991 2 25867 38.8200 166.0665 8986503 287.3514 0.4282 0.37807568 14117 ...Continue Reading

[TLELIST] Current TLEs

February 16th 2024 PDT

HST 1 20580U 90037B 24047.20070745 .00007992 00000-0 39562-3 0 9991 2 20580 28.4694 81.2828 0003016 144.7529 215.3263 15.15962695658753 ISS (ZARYA) 1 25544U 98067A 24047.24780302 .00022658 00000-0 40403-3 0 9990 2 25544 51.6402 199.6544 0001837 274.3231 146.8532 15.49986289439645 CXO 1 25867U 99040B 24048.87165384 .00000696 00000-0 00000-0 0 9991 2 25867 38.8200 166.0665 8986503 287.3514 0.4282 0.37807568 14117 ...Continue Reading

[TLELIST] Current TLEs

February 16th 2024 PDT

HST 1 20580U 90037B 24047.20070745 .00007992 00000-0 39562-3 0 9991 2 20580 28.4694 81.2828 0003016 144.7529 215.3263 15.15962695658753 ISS (ZARYA) 1 25544U 98067A 24047.24780302 .00022658 00000-0 40403-3 0 9990 2 25544 51.6402 199.6544 0001837 274.3231 146.8532 15.49986289439645 CXO 1 25867U 99040B 24048.87165384 .00000696 00000-0 00000-0 0 9991 2 25867 38.8200 166.0665 8986503 287.3514 0.4282 0.37807568 14117 ...Continue Reading

[TLELIST] Current TLEs

February 16th 2024 PDT

HST 1 20580U 90037B 24047.20070745 .00007992 00000-0 39562-3 0 9991 2 20580 28.4694 81.2828 0003016 144.7529 215.3263 15.15962695658753 ISS (ZARYA) 1 25544U 98067A 24047.24780302 .00022658 00000-0 40403-3 0 9990 2 25544 51.6402 199.6544 0001837 274.3231 146.8532 15.49986289439645 CXO 1 25867U 99040B 24048.87165384 .00000696 00000-0 00000-0 0 9991 2 25867 38.8200 166.0665 8986503 287.3514 0.4282 0.37807568 14117 ...Continue Reading

[TLELIST] Current TLEs

February 15th 2024 PDT

HST 1 20580U 90037B 24045.81819673 .00009316 00000-0 46299-3 0 9994 2 20580 28.4691 90.5202 0003025 131.1710 228.9144 15.15941320658289 ISS (ZARYA) 1 25544U 98067A 24046.17132484 .00022786 00000-0 40694-3 0 9997 2 25544 51.6393 204.9906 0001836 267.2607 263.3522 15.49938882439474 CXO 1 25867U 99040B 24046.22721651 .00000677 00000-0 00000+0 0 9991 2 25867 38.7644 166.4387 8987243 287.0503 0.4927 0.37809626 25250 ...Continue Reading

[TLELIST] Current TLEs

February 15th 2024 PDT

HST 1 20580U 90037B 24045.81819673 .00009316 00000-0 46299-3 0 9994 2 20580 28.4691 90.5202 0003025 131.1710 228.9144 15.15941320658289 ISS (ZARYA) 1 25544U 98067A 24046.17132484 .00022786 00000-0 40694-3 0 9997 2 25544 51.6393 204.9906 0001836 267.2607 263.3522 15.49938882439474 CXO 1 25867U 99040B 24046.22721651 .00000677 00000-0 00000+0 0 9991 2 25867 38.7644 166.4387 8987243 287.0503 0.4927 0.37809626 25250 ...Continue Reading

[TLELIST] Current TLEs

February 14th 2024 PDT

HST 1 20580U 90037B 24044.83067599 .00008972 00000-0 44578-3 0 9992 2 20580 28.4690 97.1185 0003052 121.7477 238.3413 15.15924115658137 ISS (ZARYA) 1 25544U 98067A 24045.38207200 .00024121 00000-0 43079-3 0 9993 2 25544 51.6399 208.8971 0001884 262.8296 181.0748 15.49903494439357 CXO 1 25867U 99040B 24046.22721651 .00000677 00000-0 00000+0 0 9991 2 25867 38.7644 166.4387 8987243 287.0503 0.4927 0.37809626 25250 ...Continue Reading
  • This mailing list is a public mailing list - anyone may join or leave, at any time.
  • This mailing list is announce-only.

International Space Station (ISS) / Hubble Space Telescope (HST) / Chandra X-Ray Observatory Orbital Data via EMAIL

Privacy Policy:

Private list